Погода в Рязанцево

Россия / Калужская область     55°16′28″N   36°28′11″E
темп.,
°C
ветер,
м/с
пор.,
м/с
влажн.,
%
обл.,
%
осадки,
мм/ч
давл.,
гПа
погр.,
м
2 августа, пн
пн200:00+17ююз2295100 0.4 101040
03:00+17юз2295100 0.8 101018
06:00+17ююв249713 0.8 1009111
09:00+22ююв248287 0.8 1008352
12:00+28ю4854100 0.0 10061279
15:00+30ю61145100 0.0 10042488
18:00+29ю612516 0.0 10021898
21:00+23ююз51465100 0.9 1002588
3 августа, вт
вт300:00+18юз41093100 0.9 1005450
03:00+15зюз39931 0.9 1006357
06:00+15юз2596100 0.0 1008232
09:00+19з346342 0.0 1009835
12:00+22з455358 0.2 10091658
15:00+21з3755100 0.3 1010802
18:00+21зюз3754100 0.0 1010636
21:00+18зюз245969 0.0 1012112
4 августа, ср
ср400:00+14юз24783 0.0 101383
03:00+15зюз267298 0.0 1014180
06:00+13зюз248173 0.0 101594
09:00+19з23592 0.0 1015591
12:00+23зюз344372 0.0 10152269
15:00+22з135488 0.1 1016587
18:00+20зсз136530 0.1 1016103
21:00+15з2288100 1.5 101728
5 августа, чт
чт500:00+14зюз129150 0.7 101811
03:00+14з119197 0.8 101810
06:00+15зсз118938 0.0 101811
09:00+20ююв116956 0.1 1018372
12:00+23ююз344699 0.2 10171700
15:00+23юз4547100 0.2 10161167
18:00+15с379496 1.0 1017323
21:00+13всв239862 1.0 101769
6 августа, пт
пт600:00+13св119793 0.3 101623
03:00+13св2298100 0.3 101650
06:00+13св369937 0.0 1017185
09:00+17всв348214 0.0 1016440
12:00+22в335797 0.0 10151202
15:00+25в235091 0.0 10141615
18:00+23всв4559100 0.0 1014613
21:00+19всв31072100 0.0 1014340